Home > Weather > Ilio > Past weeks

Flag for Greece Past Weather in Ilio, Greece — Yesterday and Last 2 Weeks

Now
95 °F

Passing clouds.


Feels Like: 91 °F
Forecast: 71 / 91 °F
Wind: 15 mph from North

Location: Elefsis Airport

Current Time: Jul 25, 2016 at 5:11:42 PM

Latest Report: Jul 25, 2016 at 3:50 PM


Visibility: N/A

Pressure: 29.83 "Hg

Humidity: 18%

Dew Point: 45 °F

Location of IlioLocation

Past Weather in Ilio — Graph

°F

Ilio Temperature Yesterday

Maximum temperature yesterday: 99 °F (at 2:20 PM)
Minimum temperature yesterday: 79 °F (at 3:50 AM)
Average temperature yesterday: 91 °F

High & Low Weather Summary for the Past Weeks

 TemperatureHumidityPressure
High99 °F (Jul 23, 4:20 PM)88% (Jul 19, 3:50 AM)29.98 "Hg (Jul 19, 3:50 AM)
Low59 °F (Jul 19, 3:50 AM)14% (Jul 10, 4:50 PM)29.68 "Hg (Jul 15, 5:20 PM)
Average84 °F34%29.85 "Hg
* Reported Jul 10 3:20 PM — Jul 25 3:50 PM, Ilio, Weather by CustomWeather, © 2016

Note: Actual official high and low records may vary slightly from our data, if they occured in-between our weather recording intervals... More about our weather records

Advertising

Ilio Weather History for the Previous 24 Hours

Scroll right to see more
 ConditionsComfort  
Time TempWeatherWind HumidityBarometerVisibility
3:50 PM
Mon, Jul 25
95 °FPassing clouds.15 mph18%29.83 "HgN/A
3:20 PM93 °FPassing clouds.16 mph19%29.83 "HgN/A
2:50 PM93 °FPassing clouds.16 mph21%29.83 "HgN/A
2:20 PM93 °FPassing clouds.16 mph21%29.83 "HgN/A
1:50 PM93 °FPassing clouds.17 mph21%29.83 "HgN/A
1:20 PM95 °FSunny.16 mph20%29.83 "Hg10 mi
12:50 PM93 °FPassing clouds.14 mph23%29.83 "HgN/A
12:20 PM93 °FPassing clouds.16 mph23%29.83 "HgN/A
11:50 AM91 °FPassing clouds.14 mph26%29.83 "HgN/A
11:20 AM90 °FSunny.15 mph27%29.83 "Hg10 mi
10:50 AM90 °FSunny.12 mph27%29.86 "Hg10 mi
10:20 AM90 °FSunny.9 mph27%29.86 "Hg10 mi
9:50 AM88 °FSunny.9 mph29%29.86 "Hg10 mi
9:20 AM88 °FSunny.9 mph29%29.86 "Hg10 mi
8:50 AM86 °FSunny.7 mph31%29.86 "Hg10 mi
8:20 AM84 °FSunny.9 mph33%29.86 "Hg10 mi
7:50 AM84 °FSunny.8 mph33%29.86 "Hg10 mi
7:20 AM82 °FClear.8 mph32%29.86 "Hg10 mi
6:50 AM82 °FClear.8 mph32%29.86 "Hg10 mi
6:20 AM82 °FClear.7 mph32%29.86 "Hg10 mi
5:50 AM81 °FClear.9 mph32%29.83 "Hg10 mi
5:20 AM82 °FClear.10 mph30%29.83 "Hg10 mi
4:50 AM82 °FClear.8 mph30%29.83 "Hg10 mi
4:20 AM81 °FClear.7 mph32%29.83 "Hg10 mi
3:50 AM82 °FClear.No wind30%29.83 "Hg10 mi
3:20 AM82 °FClear.No wind30%29.83 "Hg10 mi
2:50 AM84 °FClear.No wind33%29.83 "Hg10 mi
2:20 AM82 °FClear.8 mph28%29.83 "Hg10 mi
1:50 AM84 °FClear.6 mph25%29.83 "Hg10 mi
1:20 AM84 °FClear.6 mph25%29.86 "Hg10 mi
12:50 AM84 °FClear.8 mph25%29.86 "Hg10 mi
12:20 AM84 °FClear.6 mph25%29.86 "Hg10 mi
11:50 PM
Sun, Jul 24
88 °FClear.5 mph22%29.86 "Hg10 mi
11:20 PM88 °FClear.7 mph22%29.86 "Hg10 mi
10:50 PM88 °FClear.12 mph22%29.86 "Hg10 mi
10:20 PM88 °FClear.6 mph22%29.86 "Hg10 mi
9:50 PM88 °FClear.8 mph22%29.83 "Hg10 mi
9:20 PM90 °FSunny.5 mph20%29.83 "Hg10 mi
8:50 PM90 °FSunny.5 mph22%29.83 "Hg10 mi
8:20 PM91 °FSunny.7 mph21%29.83 "Hg10 mi
7:50 PM93 °FSunny.12 mph20%29.83 "Hg10 mi
7:20 PM93 °FSunny.16 mph20%29.83 "Hg10 mi
6:50 PM95 °FSunny.14 mph20%29.83 "Hg10 mi
6:20 PM95 °FSunny.12 mph20%29.83 "Hg10 mi
5:50 PM97 °FSunny.12 mph18%29.83 "Hg10 mi
5:20 PM97 °FSunny.12 mph19%29.83 "Hg10 mi
Weather by CustomWeather, © 2016

See weather overviewHow to use our weather pages